Simultaneous Nadir Overpasses (SNOs) Predictions

Prediction of SNOs between AQUA and METOP-B Satellite Orbit:

Table of predicted SNOs for the next 14.0 days since TLE Epoch: 8/1/2015
Index Date (AQUA) Time (AQUA) Lat,Lon (AQUA) SZA (AQUA ) Date (METOP-B) Time (METOP-B) Lat,Lon (METOP-B) SZA (METOP-B ) Distance(km) Time Diff (sec)
1 08/02/2015 15:18:37 -73.69, 124.97 124.00 08/02/2015 15:17:49 -73.70, 124.87 123.97 3.69 48
2 08/02/2015 16:08:06 73.76, -67.55 56.09 08/02/2015 16:08:27 73.78, -67.62 56.11 2.72 21
3 08/05/2015 10:52:54 -73.73,-168.70 123.21 08/05/2015 10:52:10 -73.73,-168.66 123.21 1.53 44
4 08/05/2015 11:42:23 73.82, -1.25 56.89 08/05/2015 11:42:48 73.80, -1.16 56.87 3.43 25
5 08/08/2015 06:27:10 -73.74,-102.29 122.43 08/08/2015 06:26:31 -73.75,-102.20 122.42 3.13 39
6 08/08/2015 07:16:37 73.78, 65.26 57.63 08/08/2015 07:17:09 73.77, 65.17 57.61 3.20 32
7 08/11/2015 02:01:24 -73.72, -35.80 121.65 08/11/2015 02:00:52 -73.72, -35.86 121.64 2.00 32
8 08/11/2015 02:50:53 73.81, 131.63 58.47 08/11/2015 02:51:30 73.78, 131.62 58.43 3.70 37
9 08/13/2015 21:35:40 -73.75, 30.55 120.77 08/13/2015 21:35:13 -73.73, 30.58 120.78 2.46 27
10 08/13/2015 22:25:08 73.80,-161.92 59.30 08/13/2015 22:25:51 73.79,-161.95 59.28 1.96 43




NCC Satellite Simultaneous Nadir Overpasses (SNOs) Prediction Service
